Regional Weather Roundup
Issued by NWS

Home | Current Version | Previous Version | Text Only | Print | Product List | Glossary Off
Versions: 1 2 3 4 5 6 7 8 9 10 11 12 13 14 15 16 17 18 19 20 21 22 23 24 25 26 27 28 29 30 31 32 33 34 35 36 37 38 39 40 41 42 43 44 45 46 47 48 49 50

000
ASUS43 KDMX 010603
RWRIA

WEATHER ROUNDUP FOR IOWA
NATIONAL WEATHER SERVICE DES MOINES IA
100 AM CDT SUN MAY 01 2016

NOTE: "FAIR" INDICATES FEW OR NO CLOUDS BELOW 12,000 FEET WITH NO
SIGNIFICANT WEATHER AND/OR OBSTRUCTIONS TO VISIBILITY.

* - THESE STATIONS ARE NOT NWS STATIONS...THUS NOT UNDER NWS
QUALITY CONTROL.  THEY ALSO DO NOT REPORT WEATHER SUCH
AS PRECIPITATION OR FOG.

IAZ001>003-012>014-020>022-031>034-043>046-010700-
   NORTHWEST IOWA

CITY           SKY/WX    TMP DP  RH WIND       PRES   REMARKS
CARROLL *      CLOUDY    43  43 100 E15G21    29.96R FOG
CHEROKEE *     CLOUDY    42  42  97 NE15G23   30.01R
DENISON *      CLOUDY    43  43 100 E17G26    29.94R FOG
LE MARS *      CLOUDY    45  41  87 NE16G24   30.02R
ORANGE CITY *  CLOUDY    43  41  93 E20       30.02R
SHELDON *      CLOUDY    43  41  93 NE20G32   30.03R FOG
SIOUX CITY     LGT RAIN  45  41  86 NE17      29.99R
6HR MIN TEMP:  45; 6HR MAX TEMP:  47; 6HR PCP:  0.19;

SPENCER        CLOUDY    42  40  92 NE20      30.04R FOG
6HR MIN TEMP:  42; 6HR MAX TEMP:  43; 6HR PCP:  0.01;

STORM LAKE *   CLOUDY    41  41 100 NE21G28   29.99R
$$

IAZ055>058-069>071-079>083-090>094-010700-
   SOUTHWEST IOWA

CITY           SKY/WX    TMP DP  RH WIND       PRES   REMARKS
ATLANTIC *     CLOUDY    46  45  93 NE13      29.92R
AUDUBON *      CLOUDY    45  41  87 E17G23    29.94R
CLARINDA *       N/A    N/A N/A N/A MISG        N/A
COUNCIL BLFS * CLOUDY    46  46 100 E12G18    29.90R
CRESTON *      CLOUDY    46  46 100 E15       29.92R FOG
HARLAN  *      CLOUDY    45  45 100 NE13G20   29.96R
LAMONI         CLOUDY    48  47  96 NE8       29.89S FOG
6HR MIN TEMP:  48; 6HR MAX TEMP:  53;

RED OAK *      CLOUDY    48  48 100 NE14      29.90S
SHENANDOAH *   CLOUDY    52  52 100 E9        29.89R
$$

IAZ047>049-059>061-072>074-084-010700-
   CENTRAL IOWA

CITY           SKY/WX    TMP DP  RH WIND       PRES   REMARKS
AMES           CLOUDY    44  42  93 E14       29.96S FOG
6HR MIN TEMP:  44; 6HR MAX TEMP:  47; 6HR PCP:  0.03;

ANKENY *       CLOUDY    45  45 100 NE9G16    29.95R FOG
BOONE *        CLOUDY    43  43 100 E15       29.95S FOG
CHARITON *     CLOUDY    46  46 100 NE8       29.92R FOG
DES MOINES     DRIZZLE   46  43  89 E9        29.94R FOG
6HR MIN TEMP:  46; 6HR MAX TEMP:  50; 6HR PCP:  0.04;

GRINNELL*      LGT RAIN  43  43  99 NE10      29.95R
KNOXVILLE *    CLOUDY    45  45 100 E9        29.92R FOG
MARSHALLTOWN   CLOUDY    44  42  93 E12       29.96R FOG
6HR MIN TEMP:  44; 6HR MAX TEMP:  46;

NEWTON *       CLOUDY    45  45 100 NE13G18   29.94S FOG
PELLA *        CLOUDY    45  44  97 NE5       29.94S FOG
$$

IAZ004>006-015-016-023>025-035-036-010700-
   NORTH CENTRAL IOWA

CITY           SKY/WX    TMP DP  RH WIND       PRES   REMARKS
ALGONA *       MIX PCPN  43  41  93 NE16      30.03R
CLARION *      CLOUDY    43  43 100 NE16G24   30.00R
ESTHERVILLE    CLOUDY    42  40  92 NE20      30.05R
6HR MIN TEMP:  42; 6HR MAX TEMP:  43; 6HR PCP:  0.04;

FORT DODGE *   CLOUDY    43  39  87 NE13      30.00R
MASON CITY     CLOUDY    41  40  96 NE17      30.03R FOG
6HR MIN TEMP:  41; 6HR MAX TEMP:  45; 6HR PCP:  0.02;

FOREST CITY *  CLOUDY    41  41 100 NE14G20   30.03R FOG
WEBSTER CITY * CLOUDY    43  43 100 E15       29.97R FOG
IOWA FALLS *   LGT RAIN  44  42  93 NE13G20   29.99S
$$

IAZ007>011-017>019-026>030-037>042-050>054-066-010700-
   NORTHEAST IOWA

CITY           SKY/WX    TMP DP  RH WIND       PRES   REMARKS
CEDAR RAPIDS   LGT RAIN  44  44 100 NE12      29.94R FOG
6HR MIN TEMP:  44; 6HR MAX TEMP:  46; 6HR PCP:  0.01;

CHARLES CITY * CLOUDY    43  43 100 NE17G23   30.01R FOG
CLINTON *      CLOUDY    45  44  97 E14       29.94R FOG
DECORAH *      CLOUDY    43  41  93 NE9G17    30.01R
DUBUQUE        CLOUDY    43  42  97 NE16G26   29.95R FOG
6HR MIN TEMP:  42; 6HR MAX TEMP:  43; 6HR PCP:  0.02;

MONTICELLO *   CLOUDY    45  43  93 NE12      29.95R
OELWEIN *      CLOUDY    43  43 100 NE18G24   29.97S
WATERLOO       CLOUDY    44  41  89 NE13      29.98R FOG
6HR MIN TEMP:  44; 6HR MAX TEMP:  45;

$$

IAZ064-065-067-068-078-010700-
   EAST CENTRAL IOWA

CITY           SKY/WX    TMP DP  RH WIND       PRES   REMARKS
DAVENPORT      CLOUDY    45  43  93 NE14      29.93R FOG
6HR MIN TEMP:  45; 6HR MAX TEMP:  46;

IOWA CITY      CLOUDY    45  43  93 NE7       29.95R FOG
6HR MIN TEMP:  45; 6HR MAX TEMP:  47;

MT. PLEASANT * CLOUDY    48  48 100 NE9       29.91R FOG
MUSCATINE *    CLOUDY    46  45  93 NE8       29.93R FOG
QUAD CITIES    CLOUDY    47  44  90 NE13      29.92R
6HR MIN TEMP:  47; 6HR MAX TEMP:  47;

$$

IAZ062-063-075>077-085>089-095>099-010700-
   SOUTHEAST IOWA

CITY           SKY/WX    TMP DP  RH WIND       PRES   REMARKS
BURLINGTON     CLOUDY    47  47 100 NE12      29.89R FOG
6HR MIN TEMP:  47; 6HR MAX TEMP:  53;

FAIRFIELD *    CLOUDY    46  46 100 NE8       29.91R FOG
FORT MADISON * CLOUDY    46  46 100 NE8       29.90R FOG
KEOKUK *       CLOUDY    50  50 100 NE6       29.88R FOG
OSKALOOSA *    CLOUDY    45  45 100 NE9       29.92S FOG
OTTUMWA        CLOUDY    45  45 100 NE10      29.92R FOG
6HR MIN TEMP:  45; 6HR MAX TEMP:  49;

WASHINGTON *   CLOUDY    46  46 100 NE14      29.93R FOG
$$

ABBREVIATIONS USED IN REMARKS
   TC - TEMPERATURES IN CELSIUS
  WCI - WIND CHILL INDEX
   HX - HEAT INDEX
  VSB - VISIBILITY
$$




USA.gov is the U.S. government's official web portal to all federal, state and local government web resources and services.